Kosmos-911

operational
NORAD ID: 10019 Int'l Des: 1977-039 Owner: VTS Country: SU
LEOCIRCULARPOLAR

About Kosmos-911

Description loading...

Live Position

Loading 3D Globe...

Upcoming Passes

Altitude History

Altitude vs Time

uPlot chart will show altitude changes over time

Two-Line Element Set

1 10019U 77039A 26062.52347413 .00000049 00000-0 35241-4 0 9994
2 10019 82.9474 215.0865 0023286 278.8118 148.6093 13.75418938447331
Epoch: Mar 3, 2026 • Age: 22 hours

Current Status

Altitude 990.9 km
Velocity 7.36 km/s
Sub-Earth Point -69.18°S, 80.73°W
Launch Date May 25, 1977
Age 48.7 years
Type other

Technical Details

Classification Payload
Mass 800.00 kg
Dry Mass 800.00 kg
Total Mass 800.00 kg
Length 3.00 m
Diameter 2.00 m
Span 17.00 m
Shape Cyl + Ant
Manufacturer NPOPM
Bus Type KAUR-1 11F621
Phase Status In Orbit
Owner/State VTS/SU

Large Constellations

Loading constellations...